20040110,000007,363429,31.087667,-122.652167,16.401,33.025,NaN,NaN
20040110,000037,363459,31.087833,-122.651833,16.402,33.026,NaN,NaN
20040110,000107,363489,31.087833,-122.651500,16.405,33.026,NaN,NaN
20040110,000137,363519,31.087833,-122.651167,16.406,33.026,NaN,NaN
20040110,000207,363549,31.087833,-122.651000,16.410,33.026,NaN,NaN
20040110,000237,363579,31.087833,-122.650667,16.413,33.026,NaN,NaN
20040110,000307,363609,31.087833,-122.650333,16.416,33.027,NaN,NaN
20040110,000337,363639,31.087833,-122.650000,16.416,33.028,NaN,NaN
20040110,000407,363669,31.087833,-122.649667,16.417,33.028,NaN,NaN
20040110,000437,363699,31.087833,-122.649333,16.417,33.027,NaN,NaN
20040110,000507,363729,31.087833,-122.649000,16.415,33.027,NaN,NaN
20040110,000537,363759,31.087833,-122.648667,16.418,33.028,NaN,NaN
20040110,000607,363789,31.087833,-122.648167,16.422,33.028,NaN,NaN
20040110,000637,363819,31.087833,-122.647833,16.424,33.029,NaN,NaN
20040110,000707,363849,31.087833,-122.647500,16.423,33.029,NaN,NaN
20040110,000737,363879,31.087833,-122.647167,16.423,33.029,NaN,NaN
20040110,000807,363909,31.087833,-122.646833,16.427,33.029,NaN,NaN
20040110,000837,363939,31.087833,-122.646667,16.430,33.030,NaN,NaN
20040110,000907,363969,31.087833,-122.646333,16.431,33.031,NaN,NaN
20040110,000937,363999,31.087833,-122.646000,16.433,33.032,NaN,NaN
20040110,001007,364029,31.087833,-122.645833,16.434,33.031,NaN,NaN
20040110,001037,364059,31.087833,-122.645500,16.434,33.033,NaN,NaN
20040110,001107,364089,31.087833,-122.645167,16.436,33.032,NaN,NaN
20040110,001137,364119,31.087833,-122.645000,16.438,33.033,NaN,NaN
20040110,001207,364149,31.087833,-122.644833,16.437,33.033,NaN,NaN
20040110,001237,364179,31.087833,-122.644500,16.440,33.033,NaN,NaN
20040110,001307,364209,31.087833,-122.644333,16.439,33.034,NaN,NaN
20040110,001337,364239,31.087833,-122.644167,16.443,33.034,NaN,NaN
20040110,001407,364269,31.087667,-122.644000,16.444,33.034,NaN,NaN
20040110,001437,364299,31.087667,-122.643667,16.442,33.035,NaN,NaN
20040110,001507,364329,31.087667,-122.643500,16.436,33.034,NaN,NaN
20040110,001537,364359,31.087667,-122.643167,16.431,33.033,NaN,NaN
20040110,001607,364389,31.087500,-122.643000,16.428,33.032,NaN,NaN
20040110,001637,364419,31.087500,-122.642667,16.424,33.032,NaN,NaN
20040110,001707,364449,31.087500,-122.642500,16.427,33.032,NaN,NaN
20040110,001737,364479,31.087500,-122.642167,16.433,33.033,NaN,NaN
20040110,001807,364509,31.087333,-122.642000,16.438,33.034,NaN,NaN
20040110,001837,364539,31.087333,-122.641833,16.438,33.035,NaN,NaN
20040110,001907,364569,31.087333,-122.641500,16.439,33.035,NaN,NaN
20040110,001937,364599,31.087333,-122.641333,16.439,33.035,NaN,NaN
20040110,002007,364629,31.087333,-122.641000,16.439,33.035,NaN,NaN
20040110,002037,364659,31.087333,-122.640833,16.443,33.035,NaN,NaN
20040110,002107,364689,31.087333,-122.640667,16.444,33.036,NaN,NaN
20040110,002137,364719,31.087333,-122.640333,16.447,33.036,NaN,NaN
20040110,002207,364749,31.087333,-122.640167,16.444,33.036,NaN,NaN
20040110,002237,364779,31.087167,-122.639833,16.438,33.035,NaN,NaN
20040110,002307,364809,31.087167,-122.639667,16.438,33.035,NaN,NaN
20040110,002337,364839,31.087167,-122.639333,16.439,33.035,NaN,NaN
20040110,002407,364869,31.087167,-122.639167,16.437,33.034,NaN,NaN
20040110,002437,364899,31.087167,-122.638833,16.435,33.034,NaN,NaN
20040110,002507,364929,31.087167,-122.638500,16.432,33.034,NaN,NaN
20040110,002537,364959,31.087167,-122.638333,16.426,33.034,NaN,NaN
20040110,002607,364989,31.087000,-122.638000,16.425,33.033,NaN,NaN
20040110,002637,365019,31.087000,-122.637667,16.426,33.033,NaN,NaN
20040110,002707,365049,31.087000,-122.637500,16.428,33.033,NaN,NaN
20040110,002737,365079,31.087000,-122.637167,16.429,33.034,NaN,NaN
20040110,002807,365109,31.087000,-122.637000,16.429,33.033,NaN,NaN
20040110,002837,365139,31.087000,-122.636667,16.432,33.033,NaN,NaN
20040110,002907,365169,31.087000,-122.636500,16.438,33.034,NaN,NaN
20040110,002937,365199,31.087000,-122.636167,16.439,33.035,NaN,NaN
20040110,003007,365229,31.087000,-122.635833,16.440,33.035,NaN,NaN
20040110,003037,365259,31.087000,-122.635667,16.439,33.035,NaN,NaN
20040110,003107,365289,31.087000,-122.635333,16.437,33.035,NaN,NaN
20040110,003137,365319,31.087000,-122.635000,16.439,33.035,NaN,NaN
20040110,003207,365349,31.087000,-122.634667,16.441,33.035,NaN,NaN
20040110,003237,365379,31.087167,-122.634333,16.442,33.035,NaN,NaN
20040110,003307,365409,31.087333,-122.633833,16.446,33.035,NaN,NaN
20040110,003337,365439,31.087500,-122.633500,16.454,33.035,NaN,NaN
20040110,003407,365469,31.087667,-122.632833,16.444,33.036,NaN,NaN
20040110,003437,365499,31.088000,-122.632167,16.435,33.034,NaN,NaN
20040110,003507,365529,31.088333,-122.631500,16.439,33.033,NaN,NaN
20040110,003537,365559,31.088667,-122.630500,16.428,33.033,NaN,NaN
20040110,003607,365589,31.089167,-122.629667,16.417,33.031,NaN,NaN
20040110,003637,365619,31.089667,-122.628500,16.424,33.029,NaN,NaN
20040110,003707,365649,31.090167,-122.627500,16.435,33.030,NaN,NaN
20040110,003737,365679,31.090667,-122.626167,16.418,33.030,NaN,NaN
20040110,003807,365709,31.091167,-122.625000,16.393,33.024,NaN,NaN
20040110,003837,365739,31.091833,-122.623667,16.385,33.021,NaN,NaN
20040110,003907,365769,31.092333,-122.622500,16.383,33.020,NaN,NaN
20040110,003937,365799,31.093000,-122.621167,16.391,33.021,NaN,NaN
20040110,004007,365829,31.093500,-122.620000,16.384,33.018,NaN,NaN
20040110,004037,365859,31.094167,-122.618667,16.374,33.017,NaN,NaN
20040110,004107,365889,31.094667,-122.617333,16.371,33.016,NaN,NaN
20040110,004137,365919,31.095167,-122.616000,16.371,33.015,NaN,NaN
20040110,004207,365949,31.095833,-122.614833,16.374,33.015,NaN,NaN
20040110,004237,365979,31.096333,-122.613500,16.372,33.014,NaN,NaN
20040110,004307,366009,31.097000,-122.612167,16.372,33.014,NaN,NaN
20040110,004337,366039,31.097667,-122.610833,16.372,33.013,NaN,NaN
20040110,004407,366069,31.098167,-122.609333,16.378,33.013,NaN,NaN
20040110,004437,366099,31.098833,-122.608000,16.376,33.014,NaN,NaN
20040110,004507,366129,31.099500,-122.606667,16.373,33.014,NaN,NaN
20040110,004537,366159,31.100167,-122.605167,16.371,33.014,NaN,NaN
20040110,004607,366189,31.100833,-122.603667,16.369,33.014,NaN,NaN
20040110,004637,366219,31.101500,-122.602167,16.369,33.013,NaN,NaN
20040110,004707,366249,31.102333,-122.600833,16.364,33.014,NaN,NaN
20040110,004737,366279,31.103000,-122.599333,16.361,33.014,NaN,NaN
20040110,004807,366309,31.103833,-122.598000,16.361,33.014,NaN,NaN
20040110,004837,366339,31.104500,-122.596500,16.357,33.014,NaN,NaN
20040110,004907,366369,31.105333,-122.595000,16.357,33.014,NaN,NaN
20040110,004937,366399,31.106000,-122.593667,16.357,33.015,NaN,NaN
20040110,005007,366429,31.106833,-122.592167,16.358,33.015,NaN,NaN
20040110,005037,366459,31.107500,-122.590833,16.361,33.015,NaN,NaN
20040110,005107,366489,31.108333,-122.589333,16.362,33.015,NaN,NaN
20040110,005137,366519,31.109000,-122.588000,16.365,33.014,NaN,NaN
20040110,005207,366549,31.109833,-122.586500,16.366,33.015,NaN,NaN
20040110,005237,366579,31.110500,-122.585000,16.368,33.015,NaN,NaN
20040110,005307,366609,31.111333,-122.583667,16.365,33.015,NaN,NaN
20040110,005337,366639,31.112000,-122.582167,16.367,33.015,NaN,NaN
20040110,005407,366669,31.112667,-122.580833,16.363,33.015,NaN,NaN
20040110,005437,366699,31.113500,-122.579333,16.355,33.014,NaN,NaN
20040110,005507,366729,31.114167,-122.578000,16.355,33.014,NaN,NaN
20040110,005537,366759,31.115000,-122.576500,16.346,33.013,NaN,NaN
20040110,005607,366789,31.115667,-122.575167,16.345,33.012,NaN,NaN
20040110,005637,366819,31.116500,-122.573667,16.345,33.016,NaN,NaN
20040110,005707,366849,31.117167,-122.572333,16.343,33.017,NaN,NaN
20040110,005737,366879,31.117833,-122.570833,16.335,33.018,NaN,NaN
20040110,005807,366909,31.118667,-122.569500,16.339,33.017,NaN,NaN
20040110,005837,366939,31.119333,-122.568167,16.346,33.017,NaN,NaN
20040110,005907,366969,31.120167,-122.566667,16.353,33.017,NaN,NaN
20040110,005937,366999,31.120833,-122.565333,16.360,33.018,NaN,NaN
20040110,010007,367029,31.121667,-122.564000,16.367,33.017,NaN,NaN
20040110,010037,367059,31.122333,-122.562500,16.376,33.017,NaN,NaN
20040110,010107,367089,31.123000,-122.561167,16.377,33.017,NaN,NaN
20040110,010137,367119,31.123833,-122.559833,16.377,33.017,NaN,NaN
20040110,010207,367149,31.124500,-122.558500,16.370,33.018,NaN,NaN
20040110,010237,367179,31.125333,-122.557000,16.363,33.017,NaN,NaN
20040110,010307,367209,31.126000,-122.555667,16.357,33.018,NaN,NaN
20040110,010337,367239,31.126667,-122.554167,16.360,33.017,NaN,NaN
20040110,010407,367269,31.127500,-122.552833,16.372,33.016,NaN,NaN
20040110,010437,367299,31.128167,-122.551333,16.385,33.016,NaN,NaN
20040110,010507,367329,31.129000,-122.550000,16.379,33.018,NaN,NaN
20040110,010537,367359,31.129667,-122.548500,16.378,33.018,NaN,NaN
20040110,010607,367389,31.130333,-122.547167,16.379,33.017,NaN,NaN
20040110,010637,367419,31.131167,-122.545667,16.379,33.017,NaN,NaN
20040110,010707,367449,31.131833,-122.544333,16.375,33.017,NaN,NaN
20040110,010737,367479,31.132500,-122.542833,16.374,33.016,NaN,NaN
20040110,010807,367509,31.133333,-122.541500,16.369,33.017,NaN,NaN
20040110,010837,367539,31.134167,-122.540000,16.368,33.015,NaN,NaN
20040110,010907,367569,31.134833,-122.538667,16.369,33.014,NaN,NaN
20040110,010937,367599,31.135667,-122.537167,16.369,33.014,NaN,NaN
20040110,011007,367629,31.136333,-122.535833,16.367,33.014,NaN,NaN
20040110,011037,367659,31.137167,-122.534500,16.365,33.015,NaN,NaN
20040110,011107,367689,31.137833,-122.533000,16.360,33.014,NaN,NaN
20040110,011137,367719,31.138667,-122.531667,16.355,33.014,NaN,NaN
20040110,011207,367749,31.139500,-122.530167,16.351,33.013,NaN,NaN
20040110,011237,367779,31.140167,-122.528833,16.351,33.012,NaN,NaN
20040110,011307,367809,31.141000,-122.527500,16.350,33.012,NaN,NaN
20040110,011337,367839,31.141667,-122.526000,16.349,33.012,NaN,NaN
20040110,011407,367869,31.142500,-122.524667,16.344,33.010,NaN,NaN
20040110,011437,367899,31.143167,-122.523167,16.337,33.010,NaN,NaN
20040110,011507,367929,31.144000,-122.521833,16.332,33.009,NaN,NaN
20040110,011537,367959,31.144833,-122.520500,16.327,33.009,NaN,NaN
20040110,011607,367989,31.145500,-122.519000,16.320,33.008,NaN,NaN
20040110,011637,368019,31.146333,-122.517667,16.314,33.007,NaN,NaN
20040110,011707,368049,31.147000,-122.516333,16.311,33.006,NaN,NaN
20040110,011737,368079,31.147833,-122.514833,16.305,33.005,NaN,NaN
20040110,011807,368109,31.148500,-122.513333,16.295,33.005,NaN,NaN
20040110,011837,368139,31.149333,-122.512000,16.281,33.004,NaN,NaN
20040110,011907,368169,31.150000,-122.510500,16.270,33.003,NaN,NaN
20040110,011937,368199,31.150833,-122.509167,16.249,32.999,NaN,NaN
20040110,012007,368229,31.151667,-122.507833,16.258,32.998,NaN,NaN
20040110,012037,368259,31.152333,-122.506333,16.252,33.001,NaN,NaN
20040110,012107,368289,31.153167,-122.505000,16.246,33.000,NaN,NaN
20040110,012137,368319,31.154000,-122.503667,16.243,33.000,NaN,NaN
20040110,012207,368349,31.154667,-122.502333,16.231,33.000,NaN,NaN
20040110,012237,368379,31.155500,-122.500833,16.170,32.990,NaN,NaN
20040110,012307,368409,31.156333,-122.499500,16.134,32.976,NaN,NaN
20040110,012337,368439,31.157167,-122.498167,16.100,32.967,NaN,NaN
20040110,012407,368469,31.157833,-122.496667,16.074,32.957,NaN,NaN
20040110,012437,368499,31.158667,-122.495333,16.053,32.948,NaN,NaN
20040110,012507,368529,31.159500,-122.494000,16.058,32.951,NaN,NaN
20040110,012537,368559,31.160167,-122.492667,16.002,32.938,NaN,NaN
20040110,012607,368589,31.161000,-122.491167,15.982,32.927,NaN,NaN
20040110,012637,368619,31.161667,-122.489833,15.956,32.921,NaN,NaN
20040110,012707,368649,31.162500,-122.488333,15.946,32.915,NaN,NaN
20040110,012737,368679,31.163167,-122.487000,15.941,32.915,NaN,NaN
20040110,012807,368709,31.164000,-122.485667,15.941,32.915,NaN,NaN
20040110,012837,368739,31.164667,-122.484167,15.940,32.918,NaN,NaN
20040110,012907,368769,31.165333,-122.482833,15.944,32.918,NaN,NaN
20040110,012937,368799,31.166167,-122.481500,15.949,32.919,NaN,NaN
20040110,013007,368829,31.166833,-122.480000,15.954,32.922,NaN,NaN
20040110,013037,368859,31.167500,-122.478667,15.955,32.924,NaN,NaN
20040110,013107,368889,31.168333,-122.477167,15.960,32.924,NaN,NaN
20040110,013137,368919,31.169000,-122.475833,15.965,32.924,NaN,NaN
20040110,013207,368949,31.169833,-122.474500,15.968,32.925,NaN,NaN
20040110,013237,368979,31.170500,-122.473000,15.969,32.926,NaN,NaN
20040110,013307,369009,31.171333,-122.471667,15.971,32.925,NaN,NaN
20040110,013337,369039,31.172000,-122.470167,15.976,32.927,NaN,NaN
20040110,013407,369069,31.172833,-122.468833,15.977,32.928,NaN,NaN
20040110,013437,369099,31.173500,-122.467500,15.979,32.927,NaN,NaN
20040110,013507,369129,31.174167,-122.466000,15.985,32.928,NaN,NaN
20040110,013537,369159,31.175000,-122.464667,15.985,32.928,NaN,NaN
20040110,013607,369189,31.175667,-122.463167,15.996,32.931,NaN,NaN
20040110,013637,369219,31.176500,-122.461833,15.998,32.933,NaN,NaN
20040110,013707,369249,31.177167,-122.460500,16.003,32.933,NaN,NaN
20040110,013737,369279,31.178000,-122.459000,16.011,32.936,NaN,NaN
20040110,013807,369309,31.178667,-122.457667,16.017,32.939,NaN,NaN
20040110,013837,369339,31.179500,-122.456333,16.024,32.941,NaN,NaN
20040110,013907,369369,31.180167,-122.454833,16.027,32.944,NaN,NaN
20040110,013937,369399,31.181000,-122.453500,16.029,32.944,NaN,NaN
20040110,014007,369429,31.181667,-122.452000,16.031,32.945,NaN,NaN
20040110,014037,369459,31.182333,-122.450667,16.031,32.944,NaN,NaN
20040110,014107,369489,31.183167,-122.449333,16.036,32.945,NaN,NaN
20040110,014137,369519,31.183833,-122.447833,16.033,32.944,NaN,NaN
20040110,014207,369549,31.184667,-122.446500,16.023,32.941,NaN,NaN
20040110,014237,369579,31.185333,-122.445000,16.022,32.940,NaN,NaN
20040110,014307,369609,31.186000,-122.443667,16.010,32.939,NaN,NaN
20040110,014337,369639,31.186833,-122.442167,15.998,32.934,NaN,NaN
20040110,014407,369669,31.187500,-122.440833,15.987,32.927,NaN,NaN
20040110,014437,369699,31.188333,-122.439333,15.985,32.926,NaN,NaN
20040110,014507,369729,31.189000,-122.438000,15.985,32.925,NaN,NaN
20040110,014537,369759,31.189833,-122.436667,15.988,32.927,NaN,NaN
20040110,014607,369789,31.190500,-122.435167,15.990,32.927,NaN,NaN
20040110,014637,369819,31.191167,-122.433833,16.003,32.930,NaN,NaN
20040110,014707,369849,31.192000,-122.432333,16.012,32.936,NaN,NaN
20040110,014737,369879,31.192667,-122.430833,16.017,32.938,NaN,NaN
20040110,014807,369909,31.193500,-122.429500,16.023,32.939,NaN,NaN
20040110,014837,369939,31.194167,-122.428167,16.030,32.941,NaN,NaN
20040110,014907,369969,31.194833,-122.426667,16.044,32.945,NaN,NaN
20040110,014937,369999,31.195667,-122.425333,16.052,32.950,NaN,NaN
20040110,015007,370029,31.196333,-122.423833,16.057,32.953,NaN,NaN
20040110,015037,370059,31.197000,-122.422500,16.063,32.955,NaN,NaN
20040110,015107,370089,31.197833,-122.421000,16.070,32.956,NaN,NaN
20040110,015137,370119,31.198500,-122.419500,16.076,32.957,NaN,NaN
20040110,015207,370149,31.199333,-122.418167,16.083,32.958,NaN,NaN
20040110,015237,370179,31.200000,-122.416833,16.083,32.960,NaN,NaN
20040110,015307,370209,31.200833,-122.415333,16.081,32.960,NaN,NaN
20040110,015337,370239,31.201500,-122.414000,16.075,32.961,NaN,NaN
20040110,015407,370269,31.202333,-122.412500,16.069,32.959,NaN,NaN
20040110,015437,370299,31.203000,-122.411167,16.074,32.960,NaN,NaN
20040110,015507,370329,31.203667,-122.409667,16.061,32.960,NaN,NaN
20040110,015537,370359,31.204500,-122.408333,16.060,32.957,NaN,NaN
20040110,015607,370389,31.205167,-122.406833,16.061,32.957,NaN,NaN
20040110,015637,370419,31.206000,-122.405500,16.061,32.957,NaN,NaN
20040110,015707,370449,31.206667,-122.404000,16.064,32.955,NaN,NaN
20040110,015737,370479,31.207500,-122.402667,16.058,32.955,NaN,NaN
20040110,015807,370509,31.208167,-122.401167,16.054,32.955,NaN,NaN
20040110,015837,370539,31.208833,-122.399833,16.044,32.953,NaN,NaN
20040110,015907,370569,31.209667,-122.398500,16.050,32.953,NaN,NaN
20040110,015937,370599,31.210333,-122.397000,16.050,32.954,NaN,NaN
20040110,020007,370629,31.211000,-122.395500,16.042,32.954,NaN,NaN
20040110,020037,370659,31.211833,-122.394167,16.041,32.951,NaN,NaN
20040110,020107,370689,31.212500,-122.392667,16.042,32.952,NaN,NaN
20040110,020137,370719,31.213333,-122.391333,16.043,32.952,NaN,NaN
20040110,020207,370749,31.214000,-122.390000,16.045,32.952,NaN,NaN
20040110,020237,370779,31.214833,-122.388500,16.049,32.952,NaN,NaN
20040110,020307,370809,31.215500,-122.387000,16.050,32.953,NaN,NaN
20040110,020337,370839,31.216333,-122.385667,16.056,32.954,NaN,NaN
20040110,020407,370869,31.217000,-122.384167,16.060,32.955,NaN,NaN
20040110,020437,370899,31.217833,-122.382833,16.065,32.956,NaN,NaN
20040110,020507,370929,31.218500,-122.381333,16.071,32.957,NaN,NaN
20040110,020537,370959,31.219333,-122.380000,16.076,32.959,NaN,NaN
20040110,020607,370989,31.220000,-122.378500,16.079,32.960,NaN,NaN
20040110,020637,371019,31.220667,-122.377167,16.084,32.961,NaN,NaN
20040110,020707,371049,31.221500,-122.375667,16.089,32.963,NaN,NaN
20040110,020737,371079,31.222167,-122.374333,16.092,32.963,NaN,NaN
20040110,020807,371109,31.223000,-122.372833,16.098,32.965,NaN,NaN
20040110,020837,371139,31.223667,-122.371500,16.104,32.967,NaN,NaN
20040110,020907,371169,31.224500,-122.370167,16.107,32.969,NaN,NaN
20040110,020937,371199,31.225167,-122.368667,16.111,32.970,NaN,NaN
20040110,021007,371229,31.225833,-122.367333,16.120,32.973,NaN,NaN
20040110,021037,371259,31.226667,-122.365833,16.125,32.975,NaN,NaN
20040110,021107,371289,31.227333,-122.364500,16.129,32.976,NaN,NaN
20040110,021137,371319,31.228167,-122.363000,16.134,32.979,NaN,NaN
20040110,021207,371349,31.228833,-122.361667,16.135,32.978,NaN,NaN
20040110,021237,371379,31.229667,-122.360167,16.136,32.978,NaN,NaN
20040110,021307,371409,31.230333,-122.358833,16.138,32.979,NaN,NaN
20040110,021337,371439,31.231000,-122.357333,16.137,32.979,NaN,NaN
20040110,021407,371469,31.231833,-122.356000,16.140,32.979,NaN,NaN
20040110,021437,371499,31.232500,-122.354500,16.141,32.982,NaN,NaN
20040110,021507,371529,31.233333,-122.353167,16.137,32.980,NaN,NaN
20040110,021537,371559,31.234000,-122.351667,16.134,32.979,NaN,NaN
20040110,021607,371589,31.234833,-122.350333,16.133,32.979,NaN,NaN
20040110,021637,371619,31.235500,-122.348833,16.134,32.979,NaN,NaN
20040110,021707,371649,31.236333,-122.347333,16.134,32.979,NaN,NaN
20040110,021737,371679,31.237167,-122.346000,16.130,32.980,NaN,NaN
20040110,021807,371709,31.237833,-122.344500,16.130,32.979,NaN,NaN
20040110,021837,371739,31.238667,-122.343167,16.124,32.977,NaN,NaN
20040110,021907,371769,31.239333,-122.341667,16.118,32.975,NaN,NaN
20040110,021937,371799,31.240167,-122.340333,16.115,32.975,NaN,NaN
20040110,022007,371829,31.240833,-122.338833,16.105,32.971,NaN,NaN
20040110,022037,371859,31.241667,-122.337500,16.098,32.969,NaN,NaN
20040110,022107,371889,31.242333,-122.336000,16.092,32.965,NaN,NaN
20040110,022137,371919,31.243167,-122.334500,16.082,32.961,NaN,NaN
20040110,022207,371949,31.243833,-122.333167,16.074,32.956,NaN,NaN
20040110,022237,371979,31.244667,-122.331667,16.062,32.951,NaN,NaN
20040110,022307,372009,31.245500,-122.330333,16.050,32.949,NaN,NaN
20040110,022337,372039,31.246167,-122.328833,16.035,32.943,NaN,NaN
20040110,022407,372069,31.247000,-122.327500,16.026,32.939,NaN,NaN
20040110,022437,372099,31.247667,-122.326000,16.009,32.937,NaN,NaN
20040110,022507,372129,31.248500,-122.324667,15.991,32.931,NaN,NaN
20040110,022537,372159,31.249333,-122.323167,15.972,32.928,NaN,NaN
20040110,022607,372189,31.250000,-122.321833,15.949,32.920,NaN,NaN
20040110,022637,372219,31.250833,-122.320333,15.932,32.916,NaN,NaN
20040110,022707,372249,31.251500,-122.319000,15.936,32.916,NaN,NaN
20040110,022737,372279,31.252167,-122.317500,15.949,32.921,NaN,NaN
20040110,022807,372309,31.253000,-122.316167,15.949,32.923,NaN,NaN
20040110,022837,372339,31.253667,-122.314667,15.961,32.925,NaN,NaN
20040110,022907,372369,31.254500,-122.313333,15.990,32.934,NaN,NaN
20040110,022937,372399,31.255167,-122.311833,16.000,32.938,NaN,NaN
20040110,023007,372429,31.255833,-122.310333,16.016,32.942,NaN,NaN
20040110,023037,372459,31.256667,-122.309000,16.033,32.946,NaN,NaN
20040110,023107,372489,31.257333,-122.307500,16.049,32.950,NaN,NaN
20040110,023137,372519,31.258000,-122.306167,16.064,32.955,NaN,NaN
20040110,023207,372549,31.258833,-122.304667,16.077,32.957,NaN,NaN
20040110,023237,372579,31.259500,-122.303167,16.087,32.960,NaN,NaN
20040110,023307,372609,31.260167,-122.301833,16.093,32.963,NaN,NaN
20040110,023337,372639,31.261000,-122.300333,16.101,32.964,NaN,NaN
20040110,023407,372669,31.261667,-122.299000,16.106,32.965,NaN,NaN
20040110,023437,372699,31.262333,-122.297500,16.106,32.967,NaN,NaN
20040110,023507,372729,31.263167,-122.296000,16.106,32.968,NaN,NaN
20040110,023537,372759,31.263833,-122.294667,16.108,32.968,NaN,NaN
20040110,023607,372789,31.264500,-122.293167,16.110,32.969,NaN,NaN
20040110,023637,372819,31.265167,-122.291833,16.113,32.969,NaN,NaN
20040110,023707,372849,31.266000,-122.290333,16.113,32.970,NaN,NaN
20040110,023737,372879,31.266667,-122.289000,16.116,32.971,NaN,NaN
20040110,023807,372909,31.267333,-122.287500,16.113,32.972,NaN,NaN
20040110,023837,372939,31.268167,-122.286000,16.113,32.971,NaN,NaN
20040110,023907,372969,31.268833,-122.284667,16.110,32.970,NaN,NaN
20040110,023937,372999,31.269667,-122.283333,16.107,32.969,NaN,NaN
20040110,024007,373029,31.270333,-122.281833,16.103,32.970,NaN,NaN
20040110,024037,373059,31.271000,-122.280333,16.107,32.971,NaN,NaN
20040110,024107,373089,31.271833,-122.279000,16.117,32.972,NaN,NaN
20040110,024137,373119,31.272500,-122.277500,16.133,32.974,NaN,NaN
20040110,024207,373149,31.273167,-122.276167,16.147,32.976,NaN,NaN
20040110,024237,373179,31.274000,-122.274833,16.153,32.977,NaN,NaN
20040110,024307,373209,31.274667,-122.273333,16.140,32.975,NaN,NaN
20040110,024337,373239,31.275500,-122.271833,16.115,32.968,NaN,NaN
20040110,024407,373269,31.276167,-122.270500,16.127,32.964,NaN,NaN
20040110,024437,373299,31.276833,-122.269000,16.167,32.973,NaN,NaN
20040110,024507,373329,31.277667,-122.267667,16.212,32.983,NaN,NaN
20040110,024537,373359,31.278333,-122.266333,16.253,32.994,NaN,NaN
20040110,024607,373389,31.279000,-122.264833,16.260,33.004,NaN,NaN
20040110,024637,373419,31.279833,-122.263333,16.258,33.006,NaN,NaN
20040110,024707,373449,31.280500,-122.262000,16.254,33.006,NaN,NaN
20040110,024737,373479,31.281167,-122.260667,16.249,33.006,NaN,NaN
20040110,024807,373509,31.282000,-122.259167,16.245,33.005,NaN,NaN
20040110,024837,373539,31.282667,-122.257833,16.249,33.004,NaN,NaN
20040110,024907,373569,31.283333,-122.256333,16.257,33.003,NaN,NaN
20040110,024937,373599,31.284167,-122.255000,16.267,33.004,NaN,NaN
20040110,025007,373629,31.284833,-122.253667,16.275,33.004,NaN,NaN
20040110,025037,373659,31.285500,-122.252167,16.278,33.004,NaN,NaN
20040110,025107,373689,31.286167,-122.250833,16.280,33.005,NaN,NaN
20040110,025137,373719,31.287000,-122.249333,16.279,33.006,NaN,NaN
20040110,025207,373749,31.287667,-122.248000,16.269,33.008,NaN,NaN
20040110,025237,373779,31.288333,-122.246500,16.269,33.007,NaN,NaN
20040110,025307,373809,31.289000,-122.245167,16.270,33.007,NaN,NaN
20040110,025337,373839,31.289833,-122.243833,16.261,33.008,NaN,NaN
20040110,025407,373869,31.290500,-122.242333,16.248,33.006,NaN,NaN
20040110,025437,373899,31.291167,-122.241000,16.248,33.004,NaN,NaN
20040110,025507,373929,31.291833,-122.239500,16.251,33.005,NaN,NaN
20040110,025537,373959,31.292667,-122.238167,16.247,33.006,NaN,NaN